Time,TemperatureF,DewpointF,PressureIn,WindDirection,WindDirectionDegrees,WindSpeedMPH,WindSpeedGustMPH,Humidity,HourlyPrecipIn,Conditions,Clouds,dailyrainin,SoftwareType,DateUTC
2013-07-09 00:01:00,75.1,68.5,29.95,WSW,257,0.0,0.0,80,0.00,CLR,,0.00,WeatherDisplay:10.37,2013-07-09 05:01:00,
2013-07-09 00:06:00,74.9,68.3,29.95,WSW,257,0.0,0.0,80,0.00,CLR,,0.00,WeatherDisplay:10.37,2013-07-09 05:06:00,
2013-07-09 00:11:00,74.9,68.3,29.95,WSW,257,0.0,0.0,80,0.00,CLR,,0.00,WeatherDisplay:10.37,2013-07-09 05:11:00,
2013-07-09 00:16:00,74.9,68.3,29.95,WSW,257,0.0,0.0,80,0.00,CLR,,0.00,WeatherDisplay:10.37,2013-07-09 05:16:00,
2013-07-09 00:21:00,74.9,68.3,29.95,WSW,257,0.0,0.0,80,0.00,CLR,,0.00,WeatherDisplay:10.37,2013-07-09 05:21:00,
2013-07-09 00:26:00,74.9,68.3,29.95,WSW,257,0.0,0.0,80,0.00,CLR,,0.00,WeatherDisplay:10.37,2013-07-09 05:26:00,
2013-07-09 00:31:00,74.7,68.5,29.95,WSW,257,0.0,0.0,81,0.00,CLR,,0.00,WeatherDisplay:10.37,2013-07-09 05:31:00,
2013-07-09 00:36:00,74.7,68.5,29.95,WSW,257,0.0,0.0,81,0.00,CLR,,0.00,WeatherDisplay:10.37,2013-07-09 05:36:00,
2013-07-09 00:41:00,74.6,68.4,29.95,WSW,257,0.0,0.0,81,0.00,CLR,,0.00,WeatherDisplay:10.37,2013-07-09 05:41:00,
2013-07-09 00:46:00,74.4,68.2,29.94,WSW,257,0.0,0.0,81,0.00,CLR,,0.00,WeatherDisplay:10.37,2013-07-09 05:46:00,
2013-07-09 00:51:00,74.4,68.5,29.94,WSW,257,0.0,0.0,82,0.00,CLR,,0.00,WeatherDisplay:10.37,2013-07-09 05:51:00,
2013-07-09 00:56:00,74.2,68.3,29.94,WSW,257,0.0,0.0,82,0.00,CLR,,0.00,WeatherDisplay:10.37,2013-07-09 05:56:00,
2013-07-09 01:01:00,74.2,68.3,29.95,WSW,257,0.0,0.0,82,0.00,CLR,,0.00,WeatherDisplay:10.37,2013-07-09 06:01:00,
2013-07-09 01:06:00,74.2,68.7,29.95,WSW,257,0.0,0.0,83,0.00,CLR,,0.00,WeatherDisplay:10.37,2013-07-09 06:06:00,
2013-07-09 01:11:00,74.0,68.5,29.95,WSW,257,0.0,0.0,83,0.00,CLR,,0.00,WeatherDisplay:10.37,2013-07-09 06:11:00,
2013-07-09 01:16:00,74.0,68.5,29.95,WSW,257,0.0,0.0,83,0.00,CLR,,0.00,WeatherDisplay:10.37,2013-07-09 06:16:00,
2013-07-09 01:21:00,73.9,68.4,29.95,WSW,257,0.0,0.0,83,0.00,CLR,,0.00,WeatherDisplay:10.37,2013-07-09 06:21:00,
2013-07-09 01:26:00,73.9,68.4,29.95,WSW,257,0.0,0.0,83,0.00,CLR,,0.00,WeatherDisplay:10.37,2013-07-09 06:26:00,
2013-07-09 01:31:00,73.9,68.4,29.95,WSW,257,0.0,0.0,83,0.00,CLR,,0.00,WeatherDisplay:10.37,2013-07-09 06:31:00,
2013-07-09 01:36:00,73.9,68.4,29.95,WSW,257,0.0,0.0,83,0.00,CLR,,0.00,WeatherDisplay:10.37,2013-07-09 06:36:00,
2013-07-09 01:41:00,73.7,68.2,29.95,WSW,257,0.0,0.0,83,0.00,CLR,,0.00,WeatherDisplay:10.37,2013-07-09 06:41:00,
2013-07-09 01:46:00,73.7,68.6,29.94,WSW,257,0.0,0.0,84,0.00,CLR,,0.00,WeatherDisplay:10.37,2013-07-09 06:46:00,
2013-07-09 01:51:00,73.7,68.6,29.94,WSW,257,0.0,0.0,84,0.00,CLR,,0.00,WeatherDisplay:10.37,2013-07-09 06:51:00,
2013-07-09 01:56:00,73.5,68.4,29.94,WSW,257,0.0,0.0,84,0.00,CLR,,0.00,WeatherDisplay:10.37,2013-07-09 06:56:00,
2013-07-09 02:01:00,73.5,68.4,29.94,WSW,257,0.0,0.0,84,0.00,CLR,,0.00,WeatherDisplay:10.37,2013-07-09 07:01:00,
2013-07-09 02:06:00,73.5,68.4,29.94,WSW,257,0.0,0.0,84,0.00,CLR,,0.00,WeatherDisplay:10.37,2013-07-09 07:06:00,
2013-07-09 02:11:00,73.5,68.4,29.94,WSW,257,0.0,0.0,84,0.00,CLR,,0.00,WeatherDisplay:10.37,2013-07-09 07:11:00,
2013-07-09 02:16:00,73.5,68.4,29.94,WSW,257,0.0,0.0,84,0.00,CLR,,0.00,WeatherDisplay:10.37,2013-07-09 07:16:00,
2013-07-09 02:21:00,73.5,68.4,29.94,WSW,257,0.0,0.0,84,0.00,CLR,,0.00,WeatherDisplay:10.37,2013-07-09 07:21:00,
2013-07-09 02:26:00,73.3,68.2,29.94,WSW,257,0.0,0.0,84,0.00,CLR,,0.00,WeatherDisplay:10.37,2013-07-09 07:26:00,
2013-07-09 02:31:00,73.3,68.2,29.93,WSW,257,0.0,0.0,84,0.00,CLR,,0.00,WeatherDisplay:10.37,2013-07-09 07:31:00,
2013-07-09 02:36:00,73.3,68.2,29.93,WSW,257,0.0,0.0,84,0.00,CLR,,0.00,WeatherDisplay:10.37,2013-07-09 07:36:00,
2013-07-09 02:41:00,73.2,68.4,29.93,WSW,257,0.0,0.0,85,0.00,CLR,,0.00,WeatherDisplay:10.37,2013-07-09 07:41:00,
2013-07-09 02:46:00,73.2,68.4,29.93,WSW,257,0.0,0.0,85,0.00,CLR,,0.00,WeatherDisplay:10.37,2013-07-09 07:46:00,
2013-07-09 02:52:00,73.0,68.2,29.93,WSW,257,0.0,0.0,85,0.00,CLR,,0.00,WeatherDisplay:10.37,2013-07-09 07:52:00,
2013-07-09 02:57:00,72.8,68.0,29.93,WSW,257,0.0,0.0,85,0.00,CLR,,0.00,WeatherDisplay:10.37,2013-07-09 07:57:00,
2013-07-09 03:02:00,72.7,68.3,29.92,WSW,257,0.0,0.0,86,0.00,CLR,,0.00,WeatherDisplay:10.37,2013-07-09 08:02:00,
2013-07-09 03:07:00,72.5,68.1,29.92,WSW,257,0.0,0.0,86,0.00,CLR,,0.00,WeatherDisplay:10.37,2013-07-09 08:07:00,
2013-07-09 03:12:00,72.3,67.9,29.92,WSW,257,0.0,0.0,86,0.00,CLR,,0.00,WeatherDisplay:10.37,2013-07-09 08:12:00,
2013-07-09 03:17:00,72.1,67.7,29.91,WSW,257,0.0,0.0,86,0.00,CLR,,0.00,WeatherDisplay:10.37,2013-07-09 08:17:00,
2013-07-09 03:22:00,72.0,67.9,29.91,WSW,257,0.0,0.0,87,0.00,CLR,,0.00,WeatherDisplay:10.37,2013-07-09 08:22:00,
2013-07-09 03:27:00,71.8,67.7,29.91,WSW,257,0.0,0.0,87,0.00,CLR,,0.00,WeatherDisplay:10.37,2013-07-09 08:27:00,
2013-07-09 03:32:00,71.8,67.7,29.91,WSW,257,0.0,0.0,87,0.00,CLR,,0.00,WeatherDisplay:10.37,2013-07-09 08:32:00,
2013-07-09 03:37:00,71.6,67.5,29.91,WSW,257,0.0,0.0,87,0.00,CLR,,0.00,WeatherDisplay:10.37,2013-07-09 08:37:00,
2013-07-09 03:42:00,71.5,67.8,29.91,WSW,257,0.0,0.0,88,0.00,CLR,,0.00,WeatherDisplay:10.37,2013-07-09 08:42:00,
2013-07-09 03:47:00,71.5,67.8,29.90,WSW,257,0.0,0.0,88,0.00,CLR,,0.00,WeatherDisplay:10.37,2013-07-09 08:47:00,
2013-07-09 03:52:00,71.5,67.8,29.90,WSW,257,0.0,0.0,88,0.00,CLR,,0.00,WeatherDisplay:10.37,2013-07-09 08:52:00,
2013-07-09 03:57:00,71.3,67.6,29.90,WSW,257,0.0,0.0,88,0.00,CLR,,0.00,WeatherDisplay:10.37,2013-07-09 08:57:00,
2013-07-09 04:02:00,71.3,67.6,29.90,WSW,257,0.0,0.0,88,0.00,CLR,,0.00,WeatherDisplay:10.37,2013-07-09 09:02:00,
2013-07-09 04:07:00,71.3,67.9,29.90,WSW,257,0.0,0.0,89,0.00,CLR,,0.00,WeatherDisplay:10.37,2013-07-09 09:07:00,
2013-07-09 04:12:00,71.3,67.9,29.90,WSW,257,0.0,0.0,89,0.00,CLR,,0.00,WeatherDisplay:10.37,2013-07-09 09:12:00,
2013-07-09 04:17:00,71.3,67.9,29.89,WSW,257,0.0,0.0,89,0.00,CLR,,0.00,WeatherDisplay:10.37,2013-07-09 09:17:00,
2013-07-09 04:22:00,71.3,67.9,29.89,WSW,257,0.0,0.0,89,0.00,CLR,,0.00,WeatherDisplay:10.37,2013-07-09 09:22:00,
2013-07-09 04:27:00,71.3,67.9,29.89,WSW,257,0.0,0.0,89,0.00,CLR,,0.00,WeatherDisplay:10.37,2013-07-09 09:27:00,
2013-07-09 04:32:00,71.3,67.9,29.89,WSW,257,0.0,0.0,89,0.00,SCT,,0.00,WeatherDisplay:10.37,2013-07-09 09:32:00,
2013-07-09 04:37:00,71.3,67.9,29.89,WSW,257,0.0,0.0,89,0.00,SCT,,0.00,WeatherDisplay:10.37,2013-07-09 09:37:00,
2013-07-09 04:42:00,71.5,68.1,29.89,WSW,257,0.0,0.0,89,0.00,SCT,,0.00,WeatherDisplay:10.37,2013-07-09 09:42:00,
2013-07-09 04:47:00,71.5,68.1,29.89,WSW,257,0.0,0.0,89,0.00,BKN,,0.00,WeatherDisplay:10.37,2013-07-09 09:47:00,
2013-07-09 04:52:00,71.5,68.1,29.89,WSW,257,0.0,0.0,89,0.00,BKN,,0.00,WeatherDisplay:10.37,2013-07-09 09:52:00,
2013-07-09 04:57:00,71.5,68.1,29.89,WSW,257,0.0,0.0,89,0.00,BKN,,0.00,WeatherDisplay:10.37,2013-07-09 09:57:00,
2013-07-09 05:02:00,71.5,68.1,29.90,WSW,257,0.0,0.0,89,0.00,SCT,,0.00,WeatherDisplay:10.37,2013-07-09 10:02:00,
2013-07-09 05:07:00,71.5,68.1,29.90,WSW,257,0.0,0.0,89,0.00,SCT,,0.00,WeatherDisplay:10.37,2013-07-09 10:07:00,
2013-07-09 05:12:00,71.5,68.1,29.90,WSW,257,0.0,0.0,89,0.00,SCT,,0.00,WeatherDisplay:10.37,2013-07-09 10:12:00,
2013-07-09 05:17:00,71.5,68.1,29.90,WSW,257,0.0,0.0,89,0.00,SCT,,0.00,WeatherDisplay:10.37,2013-07-09 10:17:00,
2013-07-09 05:22:00,71.5,68.1,29.90,WSW,257,0.0,0.0,89,0.00,SCT,,0.00,WeatherDisplay:10.37,2013-07-09 10:22:00,
2013-07-09 05:27:00,71.5,68.1,29.90,WSW,257,0.0,0.0,89,0.00,SCT,,0.00,WeatherDisplay:10.37,2013-07-09 10:27:00,
2013-07-09 05:32:00,71.6,68.2,29.89,WSW,257,0.0,0.0,89,0.00,CLR,,0.00,WeatherDisplay:10.37,2013-07-09 10:32:00,
2013-07-09 05:37:00,71.6,68.2,29.89,WSW,257,0.0,0.0,89,0.00,CLR,,0.00,WeatherDisplay:10.37,2013-07-09 10:37:00,
2013-07-09 05:42:00,71.8,68.4,29.89,WSW,257,0.0,0.0,89,0.00,CLR,,0.00,WeatherDisplay:10.37,2013-07-09 10:42:00,
2013-07-09 05:47:00,71.8,68.4,29.88,WSW,257,0.0,0.0,89,0.00,SCT,,0.00,WeatherDisplay:10.37,2013-07-09 10:47:00,
2013-07-09 05:52:00,71.8,68.4,29.88,WSW,257,2.0,2.0,89,0.00,SCT,,0.00,WeatherDisplay:10.37,2013-07-09 10:52:00,
2013-07-09 05:57:00,71.8,68.4,29.88,WSW,257,0.0,0.0,89,0.00,SCT,,0.00,WeatherDisplay:10.37,2013-07-09 10:57:00,
2013-07-09 06:02:00,71.8,68.4,29.86,WSW,257,1.1,0.0,89,0.00,SCT,,0.00,WeatherDisplay:10.37,2013-07-09 11:02:00,
2013-07-09 06:07:00,72.0,68.6,29.86,WSW,257,0.0,0.0,89,0.00,SCT,,0.00,WeatherDisplay:10.37,2013-07-09 11:07:00,
2013-07-09 06:12:00,72.0,68.6,29.86,WSW,257,0.0,0.0,89,0.00,SCT,,0.00,WeatherDisplay:10.37,2013-07-09 11:12:00,
2013-07-09 06:17:00,72.1,68.7,29.86,WSW,257,2.3,2.3,89,0.00,SCT,,0.00,WeatherDisplay:10.37,2013-07-09 11:17:00,
2013-07-09 06:22:00,72.3,68.5,29.86,WSW,257,0.0,0.0,88,0.00,SCT,,0.00,WeatherDisplay:10.37,2013-07-09 11:22:00,
2013-07-09 06:27:00,72.3,68.5,29.86,WSW,257,0.0,0.1,88,0.00,SCT,,0.00,WeatherDisplay:10.37,2013-07-09 11:27:00,
2013-07-09 06:32:00,72.5,68.7,29.85,WSW,257,0.0,0.0,88,0.00,CLR,,0.00,WeatherDisplay:10.37,2013-07-09 11:32:00,
2013-07-09 06:37:00,72.5,68.7,29.85,WSW,257,1.0,0.0,88,0.00,CLR,,0.00,WeatherDisplay:10.37,2013-07-09 11:37:00,
2013-07-09 06:42:00,72.7,68.9,29.85,WSW,257,0.0,0.0,88,0.00,CLR,,0.00,WeatherDisplay:10.37,2013-07-09 11:42:00,
2013-07-09 06:47:00,72.8,69.0,29.85,WSW,257,3.5,3.5,88,0.00,CLR,,0.00,WeatherDisplay:10.37,2013-07-09 11:47:00,
2013-07-09 06:52:00,73.2,69.4,29.85,WSW,257,0.0,0.0,88,0.00,CLR,,0.00,WeatherDisplay:10.37,2013-07-09 11:52:00,
2013-07-09 06:57:00,73.3,69.2,29.85,WSW,257,0.0,0.0,87,0.00,CLR,,0.00,WeatherDisplay:10.37,2013-07-09 11:57:00,
2013-07-09 07:02:00,73.3,69.2,29.83,WSW,257,1.1,0.0,87,0.00,SCT,,0.00,WeatherDisplay:10.37,2013-07-09 12:02:00,
2013-07-09 07:07:00,73.5,69.4,29.83,WSW,257,0.0,0.0,87,0.00,SCT,,0.00,WeatherDisplay:10.37,2013-07-09 12:07:00,
2013-07-09 07:12:00,73.7,69.6,29.83,South,188,0.0,1.2,87,0.00,SCT,,0.00,WeatherDisplay:10.37,2013-07-09 12:12:00,
2013-07-09 07:17:00,73.9,69.4,29.83,South,182,3.5,3.5,86,0.00,SCT,,0.00,WeatherDisplay:10.37,2013-07-09 12:17:00,
2013-07-09 07:22:00,74.0,69.5,29.83,South,182,2.3,2.3,86,0.00,SCT,,0.00,WeatherDisplay:10.37,2013-07-09 12:22:00,
2013-07-09 07:27:00,74.0,69.5,29.83,South,182,2.0,2.0,86,0.00,SCT,,0.00,WeatherDisplay:10.37,2013-07-09 12:27:00,
2013-07-09 07:32:00,74.2,69.7,29.83,South,182,4.6,4.6,86,0.00,CLR,,0.00,WeatherDisplay:10.37,2013-07-09 12:32:00,
2013-07-09 07:37:00,74.4,69.9,29.83,South,182,0.0,0.0,86,0.00,CLR,,0.00,WeatherDisplay:10.37,2013-07-09 12:37:00,
2013-07-09 07:42:00,74.4,69.9,29.83,South,182,1.1,1.1,86,0.00,CLR,,0.00,WeatherDisplay:10.37,2013-07-09 12:42:00,
2013-07-09 07:47:00,74.4,69.9,29.83,South,184,3.0,3.0,86,0.00,SCT,,0.00,WeatherDisplay:10.37,2013-07-09 12:47:00,
2013-07-09 07:52:00,74.6,70.1,29.83,SSW,198,3.5,3.5,86,0.00,SCT,,0.00,WeatherDisplay:10.37,2013-07-09 12:52:00,
2013-07-09 07:57:00,74.6,70.1,29.83,South,177,4.0,4.0,86,0.00,SCT,,0.00,WeatherDisplay:10.37,2013-07-09 12:57:00,
2013-07-09 08:02:00,74.7,70.2,29.84,SSW,206,6.9,6.9,86,0.00,BKN,,0.00,WeatherDisplay:10.37,2013-07-09 13:02:00,
2013-07-09 08:07:00,74.2,69.7,29.84,South,178,19.6,19.6,86,0.14,RA,,0.18,WeatherDisplay:10.37,2013-07-09 13:07:00,
2013-07-09 08:12:00,71.6,67.9,29.84,SW,223,10.4,10.4,88,0.31,RA,,0.33,WeatherDisplay:10.37,2013-07-09 13:12:00,
2013-07-09 08:17:00,70.4,67.0,29.87,South,180,5.8,5.8,89,0.37,RA,,0.38,WeatherDisplay:10.37,2013-07-09 13:17:00,
2013-07-09 08:22:00,69.6,66.5,29.87,SW,221,10.0,10.0,90,0.41,RA,,0.41,WeatherDisplay:10.37,2013-07-09 13:22:00,
2013-07-09 08:27:00,69.4,67.0,29.87,South,184,4.6,4.8,92,0.44,RA,,0.45,WeatherDisplay:10.37,2013-07-09 13:27:00,
2013-07-09 08:32:00,69.3,66.9,29.87,SSW,194,9.2,9.2,92,0.47,RA,,0.47,WeatherDisplay:10.37,2013-07-09 13:32:00,
2013-07-09 08:37:00,69.1,67.0,29.87,SSW,197,5.0,5.0,93,0.48,RA,,0.48,WeatherDisplay:10.37,2013-07-09 13:37:00,
2013-07-09 08:42:00,69.1,67.0,29.87,South,175,4.6,4.6,93,0.48,RA,,0.49,WeatherDisplay:10.37,2013-07-09 13:42:00,
2013-07-09 08:47:00,69.1,67.0,29.83,South,178,5.8,5.8,93,0.49,RA,,0.49,WeatherDisplay:10.37,2013-07-09 13:47:00,
2013-07-09 08:52:00,69.1,67.3,29.83,South,177,9.2,9.2,94,0.50,RA,,0.50,WeatherDisplay:10.37,2013-07-09 13:52:00,
2013-07-09 08:57:00,68.9,67.1,29.83,South,181,5.8,5.8,94,0.50,RA,,0.50,WeatherDisplay:10.37,2013-07-09 13:57:00,
2013-07-09 09:02:00,68.8,67.0,29.79,South,188,3.5,3.5,94,0.50,OVC,,0.50,WeatherDisplay:10.37,2013-07-09 14:02:00,
2013-07-09 09:07:00,68.9,67.1,29.79,South,185,3.5,3.5,94,0.36,OVC,,0.50,WeatherDisplay:10.37,2013-07-09 14:07:00,
2013-07-09 09:12:00,68.9,67.1,29.79,SSW,192,1.1,0.0,94,0.19,OVC,,0.50,WeatherDisplay:10.37,2013-07-09 14:12:00,
2013-07-09 09:17:00,69.1,67.6,29.76,SSW,194,5.8,5.8,95,0.13,OVC,,0.50,WeatherDisplay:10.37,2013-07-09 14:17:00,
2013-07-09 09:22:00,69.4,67.9,29.76,SW,217,6.9,6.9,95,0.09,OVC,,0.50,WeatherDisplay:10.37,2013-07-09 14:22:00,
2013-07-09 09:27:00,69.6,68.1,29.76,South,179,6.9,6.9,95,0.06,OVC,,0.50,WeatherDisplay:10.37,2013-07-09 14:27:00,
2013-07-09 09:32:00,69.6,68.1,29.80,South,185,9.2,9.2,95,0.03,SCT,,0.50,WeatherDisplay:10.37,2013-07-09 14:32:00,
2013-07-09 09:37:00,69.8,68.3,29.80,SSW,192,8.1,8.1,95,0.02,SCT,,0.50,WeatherDisplay:10.37,2013-07-09 14:37:00,
2013-07-09 09:42:00,69.9,68.4,29.80,South,187,9.2,9.2,95,0.02,SCT,,0.50,WeatherDisplay:10.37,2013-07-09 14:42:00,
2013-07-09 09:47:00,70.1,68.6,29.79,SSE,157,10.4,10.4,95,0.01,CLR,,0.50,WeatherDisplay:10.37,2013-07-09 14:47:00,
2013-07-09 09:52:00,70.3,68.8,29.79,SSW,200,10.4,10.4,95,0.00,CLR,,0.50,WeatherDisplay:10.37,2013-07-09 14:52:00,
2013-07-09 09:57:00,70.6,69.1,29.79,South,185,7.0,7.0,95,0.00,CLR,,0.50,WeatherDisplay:10.37,2013-07-09 14:57:00,
2013-07-09 10:02:00,70.8,69.3,29.80,SSW,200,11.5,11.5,95,0.00,CLR,,0.50,WeatherDisplay:10.37,2013-07-09 15:02:00,
2013-07-09 10:07:00,70.9,69.4,29.80,South,176,9.2,9.2,95,0.00,CLR,,0.50,WeatherDisplay:10.37,2013-07-09 15:07:00,
2013-07-09 10:12:00,71.1,69.6,29.80,SW,223,10.4,10.4,95,0.00,CLR,,0.50,WeatherDisplay:10.37,2013-07-09 15:12:00,
2013-07-09 10:17:00,71.5,70.0,29.83,SSE,168,3.5,3.5,95,0.00,CLR,,0.50,WeatherDisplay:10.37,2013-07-09 15:17:00,
2013-07-09 10:18:00,71.5,70.0,29.83,South,171,3.5,3.5,95,0.00,CLR,,0.50,WeatherDisplay:10.37,2013-07-09 15:18:00,
2013-07-09 10:23:00,72.0,70.5,29.83,South,179,3.5,3.5,95,0.00,CLR,,0.50,WeatherDisplay:10.37,2013-07-09 15:23:00,
2013-07-09 10:28:00,72.3,70.8,29.83,WSW,238,2.3,2.3,95,0.00,CLR,,0.50,WeatherDisplay:10.37,2013-07-09 15:28:00,
2013-07-09 10:33:00,72.5,70.7,29.84,SSW,205,8.1,8.1,94,0.00,CLR,,0.50,WeatherDisplay:10.37,2013-07-09 15:33:00,
2013-07-09 10:38:00,73.2,71.1,29.84,WSW,252,5.0,5.0,93,0.00,CLR,,0.50,WeatherDisplay:10.37,2013-07-09 15:38:00,
2013-07-09 10:43:00,73.0,70.2,29.84,SW,220,11.5,11.5,91,0.00,CLR,,0.50,WeatherDisplay:10.37,2013-07-09 15:43:00,
2013-07-09 10:48:00,73.7,70.3,29.84,SSW,213,9.2,9.2,89,0.00,SCT,,0.50,WeatherDisplay:10.37,2013-07-09 15:48:00,
2013-07-09 10:53:00,74.6,70.1,29.84,SSW,213,12.7,12.7,86,0.00,SCT,,0.50,WeatherDisplay:10.37,2013-07-09 15:53:00,
2013-07-09 10:58:00,75.8,70.3,29.84,SSW,207,4.6,4.6,83,0.00,SCT,,0.50,WeatherDisplay:10.37,2013-07-09 15:58:00,
2013-07-09 11:03:00,76.7,70.1,29.84,SSW,195,3.5,3.5,80,0.00,SCT,,0.50,WeatherDisplay:10.37,2013-07-09 16:03:00,
2013-07-09 11:08:00,77.2,69.4,29.84,SSW,213,5.8,5.8,77,0.00,SCT,,0.50,WeatherDisplay:10.37,2013-07-09 16:08:00,
2013-07-09 11:13:00,77.7,69.1,29.84,South,190,5.0,5.0,75,0.00,SCT,,0.50,WeatherDisplay:10.37,2013-07-09 16:13:00,
2013-07-09 11:18:00,78.6,69.2,29.84,South,182,4.6,4.6,73,0.00,SCT,,0.50,WeatherDisplay:10.37,2013-07-09 16:18:00,
2013-07-09 11:23:00,79.2,68.6,29.84,South,173,11.5,11.5,70,0.00,SCT,,0.50,WeatherDisplay:10.37,2013-07-09 16:23:00,
2013-07-09 11:28:00,79.4,67.9,29.84,South,188,11.5,11.5,68,0.00,SCT,,0.50,WeatherDisplay:10.37,2013-07-09 16:28:00,
2013-07-09 11:33:00,80.3,69.6,29.84,SSW,194,3.5,3.5,70,0.00,SCT,,0.50,WeatherDisplay:10.37,2013-07-09 16:33:00,
2013-07-09 11:38:00,80.7,69.2,29.84,SSW,213,6.9,6.9,68,0.00,SCT,,0.50,WeatherDisplay:10.37,2013-07-09 16:38:00,
2013-07-09 11:43:00,81.1,69.5,29.84,SW,215,9.0,9.0,68,0.00,SCT,,0.50,WeatherDisplay:10.37,2013-07-09 16:43:00,
2013-07-09 11:48:00,80.5,68.5,29.84,SSW,206,11.5,11.5,67,0.00,SCT,,0.50,WeatherDisplay:10.37,2013-07-09 16:48:00,
2013-07-09 11:53:00,81.1,68.7,29.84,SSW,211,8.1,8.1,66,0.00,SCT,,0.50,WeatherDisplay:10.37,2013-07-09 16:53:00,
2013-07-09 11:58:00,80.9,67.6,29.84,SSW,200,11.5,11.5,64,0.00,SCT,,0.50,WeatherDisplay:10.37,2013-07-09 16:58:00,
2013-07-09 12:03:00,81.6,69.1,29.84,WNW,287,3.5,3.5,66,0.00,CLR,,0.50,WeatherDisplay:10.37,2013-07-09 17:03:00,
2013-07-09 12:08:00,82.2,67.9,29.84,SSW,209,3.5,3.5,62,0.00,CLR,,0.50,WeatherDisplay:10.37,2013-07-09 17:08:00,
2013-07-09 12:13:00,82.2,66.9,29.84,SW,224,13.8,13.8,60,0.00,CLR,,0.50,WeatherDisplay:10.37,2013-07-09 17:13:00,
2013-07-09 12:18:00,82.2,67.9,29.84,WNW,300,6.9,6.9,62,0.00,CLR,,0.50,WeatherDisplay:10.37,2013-07-09 17:18:00,
2013-07-09 12:23:00,82.6,67.8,29.84,WSW,246,10.0,10.0,61,0.00,CLR,,0.50,WeatherDisplay:10.37,2013-07-09 17:23:00,
2013-07-09 12:28:00,82.8,68.4,29.84,NW,319,11.5,11.5,62,0.00,CLR,,0.50,WeatherDisplay:10.37,2013-07-09 17:28:00,
2013-07-09 12:33:00,83.0,67.2,29.83,WNW,294,11.5,11.5,59,0.00,CLR,,0.50,WeatherDisplay:10.37,2013-07-09 17:33:00,
2013-07-09 12:38:00,83.2,68.8,29.84,WSW,238,9.2,9.2,62,0.00,CLR,,0.50,WeatherDisplay:10.37,2013-07-09 17:38:00,
2013-07-09 12:43:00,83.4,67.6,29.84,SSW,205,11.5,11.5,59,0.00,CLR,,0.50,WeatherDisplay:10.37,2013-07-09 17:43:00,
2013-07-09 12:48:00,83.2,66.4,29.83,South,190,17.3,17.3,57,0.00,CLR,,0.50,WeatherDisplay:10.37,2013-07-09 17:48:00,
2013-07-09 12:53:00,82.6,66.8,29.83,West,278,11.5,11.5,59,0.00,CLR,,0.50,WeatherDisplay:10.37,2013-07-09 17:53:00,
2013-07-09 12:58:00,83.2,66.9,29.83,WSW,241,6.9,6.9,58,0.00,CLR,,0.50,WeatherDisplay:10.37,2013-07-09 17:58:00,
2013-07-09 13:03:00,82.8,67.5,29.83,North,355,9.2,9.2,60,0.00,SCT,,0.50,WeatherDisplay:10.37,2013-07-09 18:03:00,
2013-07-09 13:08:00,82.4,67.1,29.83,South,183,10.4,10.4,60,0.00,SCT,,0.50,WeatherDisplay:10.37,2013-07-09 18:08:00,
2013-07-09 13:13:00,82.4,66.1,29.83,West,267,13.8,13.8,58,0.00,SCT,,0.50,WeatherDisplay:10.37,2013-07-09 18:13:00,
2013-07-09 13:18:00,82.8,66.5,29.83,NNE,15,17.3,17.3,58,0.00,SCT,,0.50,WeatherDisplay:10.37,2013-07-09 18:18:00,
2013-07-09 13:23:00,83.0,66.2,29.83,SW,216,13.0,13.0,57,0.00,SCT,,0.50,WeatherDisplay:10.37,2013-07-09 18:23:00,
2013-07-09 13:28:00,83.4,67.6,29.83,SW,225,9.2,9.2,59,0.00,SCT,,0.50,WeatherDisplay:10.37,2013-07-09 18:28:00,
2013-07-09 13:33:00,84.0,67.1,29.83,WNW,292,11.5,11.5,57,0.00,SCT,,0.50,WeatherDisplay:10.37,2013-07-09 18:33:00,
2013-07-09 13:38:00,83.6,66.8,29.83,West,264,12.7,12.7,57,0.00,SCT,,0.50,WeatherDisplay:10.37,2013-07-09 18:38:00,
2013-07-09 13:43:00,83.6,68.2,29.83,SW,221,5.8,5.8,60,0.00,SCT,,0.50,WeatherDisplay:10.37,2013-07-09 18:43:00,
2013-07-09 13:48:00,83.2,67.9,29.83,WNW,286,7.0,7.0,60,0.00,SCT,,0.50,WeatherDisplay:10.37,2013-07-09 18:48:00,
2013-07-09 13:53:00,82.8,68.0,29.83,NE,34,11.5,11.5,61,0.00,SCT,,0.50,WeatherDisplay:10.37,2013-07-09 18:53:00,
2013-07-09 13:58:00,83.0,67.7,29.83,SW,234,11.5,11.5,60,0.00,SCT,,0.50,WeatherDisplay:10.37,2013-07-09 18:58:00,
2013-07-09 14:03:00,83.6,68.2,29.83,NW,326,11.5,11.5,60,0.00,SCT,,0.50,WeatherDisplay:10.37,2013-07-09 19:03:00,
2013-07-09 14:08:00,83.4,68.1,29.83,SW,219,5.0,5.0,60,0.00,SCT,,0.50,WeatherDisplay:10.37,2013-07-09 19:08:00,
2013-07-09 14:13:00,83.6,69.2,29.83,West,261,2.3,2.6,62,0.00,SCT,,0.50,WeatherDisplay:10.37,2013-07-09 19:13:00,
2013-07-09 14:18:00,83.8,68.9,29.83,SE,139,11.5,11.5,61,0.00,SCT,,0.50,WeatherDisplay:10.37,2013-07-09 19:18:00,
2013-07-09 14:23:00,83.8,68.4,29.83,South,183,18.4,18.4,60,0.00,SCT,,0.50,WeatherDisplay:10.37,2013-07-09 19:23:00,
2013-07-09 14:28:00,84.3,68.9,29.83,NNW,327,6.9,6.9,60,0.00,SCT,,0.50,WeatherDisplay:10.37,2013-07-09 19:28:00,
2013-07-09 14:33:00,83.6,67.3,29.83,WNW,295,6.9,6.9,58,0.00,BKN,,0.50,WeatherDisplay:10.37,2013-07-09 19:33:00,
2013-07-09 14:38:00,83.0,67.7,29.83,WSW,257,11.5,11.5,60,0.00,BKN,,0.50,WeatherDisplay:10.37,2013-07-09 19:38:00,
2013-07-09 14:43:00,82.2,67.9,29.83,NW,316,6.0,6.0,62,0.00,BKN,,0.50,WeatherDisplay:10.37,2013-07-09 19:43:00,
2013-07-09 14:48:00,82.4,68.1,29.83,South,170,4.6,4.6,62,0.00,BKN,,0.50,WeatherDisplay:10.37,2013-07-09 19:48:00,
2013-07-09 14:53:00,82.8,68.4,29.83,SW,234,5.8,5.8,62,0.00,BKN,,0.50,WeatherDisplay:10.37,2013-07-09 19:53:00,
2013-07-09 14:58:00,83.4,68.1,29.83,ENE,74,3.5,3.5,60,0.00,BKN,,0.50,WeatherDisplay:10.37,2013-07-09 19:58:00,
2013-07-09 15:03:00,83.0,68.2,29.83,WNW,287,11.5,11.5,61,0.00,BKN,,0.50,WeatherDisplay:10.37,2013-07-09 20:03:00,
2013-07-09 15:08:00,83.2,68.3,29.83,NNW,332,5.8,5.8,61,0.00,BKN,,0.50,WeatherDisplay:10.37,2013-07-09 20:08:00,
2013-07-09 15:13:00,83.6,68.2,29.83,SE,126,9.2,9.2,60,0.00,BKN,,0.50,WeatherDisplay:10.37,2013-07-09 20:13:00,
2013-07-09 15:18:00,84.3,68.4,29.83,SW,236,10.4,10.4,59,0.00,BKN,,0.50,WeatherDisplay:10.37,2013-07-09 20:18:00,
2013-07-09 15:23:00,84.0,68.6,29.83,ESE,113,10.4,10.4,60,0.00,BKN,,0.50,WeatherDisplay:10.37,2013-07-09 20:23:00,
2013-07-09 15:28:00,84.5,68.6,29.83,WSW,241,10.4,10.4,59,0.00,BKN,,0.50,WeatherDisplay:10.37,2013-07-09 20:28:00,
2013-07-09 15:33:00,84.5,68.6,29.84,West,277,5.8,5.8,59,0.00,BKN,,0.50,WeatherDisplay:10.37,2013-07-09 20:33:00,
2013-07-09 15:38:00,84.9,69.5,29.84,NNE,22,6.0,6.0,60,0.00,BKN,,0.50,WeatherDisplay:10.37,2013-07-09 20:38:00,
2013-07-09 15:43:00,84.9,69.5,29.84,WNW,289,6.9,6.9,60,0.00,BKN,,0.50,WeatherDisplay:10.37,2013-07-09 20:43:00,
2013-07-09 15:48:00,85.3,69.3,29.83,West,277,5.8,5.8,59,0.00,BKN,,0.50,WeatherDisplay:10.37,2013-07-09 20:48:00,
2013-07-09 15:53:00,85.3,69.8,29.83,WSW,248,3.5,3.5,60,0.00,BKN,,0.50,WeatherDisplay:10.37,2013-07-09 20:53:00,
2013-07-09 15:58:00,85.5,70.0,29.83,SW,218,5.0,5.0,60,0.00,BKN,,0.50,WeatherDisplay:10.37,2013-07-09 20:58:00,
2013-07-09 16:03:00,84.9,69.5,29.83,NE,47,5.8,5.8,60,0.00,BKN,,0.50,WeatherDisplay:10.37,2013-07-09 21:03:00,
2013-07-09 16:08:00,85.1,69.2,29.83,West,262,6.0,6.0,59,0.00,BKN,,0.50,WeatherDisplay:10.37,2013-07-09 21:08:00,
2013-07-09 16:13:00,85.3,69.3,29.83,NW,319,5.8,5.8,59,0.00,BKN,,0.50,WeatherDisplay:10.37,2013-07-09 21:13:00,
2013-07-09 16:18:00,85.1,69.7,29.83,SW,228,4.0,4.0,60,0.00,BKN,,0.50,WeatherDisplay:10.37,2013-07-09 21:18:00,
2013-07-09 16:23:00,85.3,69.8,29.83,NW,319,11.0,11.0,60,0.00,BKN,,0.50,WeatherDisplay:10.37,2013-07-09 21:23:00,
2013-07-09 16:28:00,84.7,69.3,29.83,NW,309,6.9,6.9,60,0.00,BKN,,0.50,WeatherDisplay:10.37,2013-07-09 21:28:00,
2013-07-09 16:33:00,84.3,69.4,29.83,SSW,211,4.6,4.6,61,0.00,SCT,,0.50,WeatherDisplay:10.37,2013-07-09 21:33:00,
2013-07-09 16:38:00,85.1,69.7,29.83,West,267,9.2,9.2,60,0.00,SCT,,0.50,WeatherDisplay:10.37,2013-07-09 21:38:00,
2013-07-09 16:43:00,85.7,69.7,29.83,WSW,237,9.2,9.2,59,0.00,SCT,,0.50,WeatherDisplay:10.37,2013-07-09 21:43:00,
2013-07-09 16:48:00,85.7,69.2,29.83,WNW,302,5.8,5.8,58,0.00,CLR,,0.50,WeatherDisplay:10.37,2013-07-09 21:48:00,
2013-07-09 16:53:00,85.3,68.8,29.83,WSW,253,11.5,11.5,58,0.00,CLR,,0.50,WeatherDisplay:10.37,2013-07-09 21:53:00,
2013-07-09 16:58:00,84.7,68.8,29.83,West,268,6.9,6.9,59,0.00,CLR,,0.50,WeatherDisplay:10.37,2013-07-09 21:58:00,
2013-07-09 17:03:00,84.7,69.3,29.83,SW,222,9.2,9.2,60,0.00,SCT,,0.50,WeatherDisplay:10.37,2013-07-09 22:03:00,
2013-07-09 17:08:00,84.9,69.5,29.83,SW,226,5.0,5.0,60,0.00,SCT,,0.50,WeatherDisplay:10.37,2013-07-09 22:08:00,
2013-07-09 17:13:00,84.7,69.3,29.83,SSW,196,4.6,4.6,60,0.00,SCT,,0.50,WeatherDisplay:10.37,2013-07-09 22:13:00,
2013-07-09 17:18:00,84.7,69.3,29.83,SSW,205,10.0,10.0,60,0.00,SCT,,0.50,WeatherDisplay:10.37,2013-07-09 22:18:00,
2013-07-09 17:23:00,84.5,69.1,29.84,West,279,4.6,4.6,60,0.00,SCT,,0.50,WeatherDisplay:10.37,2013-07-09 22:23:00,
2013-07-09 17:28:00,84.7,69.3,29.84,WSW,242,3.5,3.5,60,0.00,SCT,,0.50,WeatherDisplay:10.37,2013-07-09 22:28:00,
2013-07-09 17:33:00,84.9,69.5,29.84,SW,236,3.5,3.5,60,0.00,SCT,,0.50,WeatherDisplay:10.37,2013-07-09 22:33:00,
2013-07-09 17:38:00,84.5,69.1,29.84,WNW,291,11.5,11.5,60,0.00,SCT,,0.50,WeatherDisplay:10.37,2013-07-09 22:38:00,
2013-07-09 17:43:00,84.7,69.3,29.84,West,262,5.8,5.8,60,0.00,SCT,,0.50,WeatherDisplay:10.37,2013-07-09 22:43:00,
2013-07-09 17:48:00,84.7,69.3,29.84,SW,230,5.8,5.8,60,0.00,SCT,,0.50,WeatherDisplay:10.37,2013-07-09 22:48:00,
2013-07-09 17:53:00,84.7,69.3,29.84,NW,312,4.6,4.6,60,0.00,SCT,,0.50,WeatherDisplay:10.37,2013-07-09 22:53:00,
2013-07-09 17:58:00,84.5,69.6,29.84,WNW,301,9.2,9.2,61,0.00,SCT,,0.50,WeatherDisplay:10.37,2013-07-09 22:58:00,
2013-07-09 18:03:00,84.5,69.6,29.83,West,279,3.5,3.5,61,0.00,CLR,,0.50,WeatherDisplay:10.37,2013-07-09 23:03:00,
2013-07-09 18:08:00,84.5,69.1,29.83,WNW,294,10.4,10.4,60,0.00,CLR,,0.50,WeatherDisplay:10.37,2013-07-09 23:08:00,
2013-07-09 18:13:00,84.1,69.2,29.84,SW,218,11.5,11.5,61,0.00,CLR,,0.50,WeatherDisplay:10.37,2013-07-09 23:13:00,
2013-07-09 18:18:00,84.0,70.0,29.84,SSW,212,3.0,3.0,63,0.00,CLR,,0.50,WeatherDisplay:10.37,2013-07-09 23:18:00,
2013-07-09 18:23:00,84.3,69.4,29.84,SW,221,10.4,10.4,61,0.00,CLR,,0.50,WeatherDisplay:10.37,2013-07-09 23:23:00,
2013-07-09 18:28:00,84.5,69.1,29.84,SW,222,5.8,5.8,60,0.00,CLR,,0.50,WeatherDisplay:10.37,2013-07-09 23:28:00,
2013-07-09 18:33:00,84.7,69.3,29.83,WSW,254,4.0,4.0,60,0.00,CLR,,0.50,WeatherDisplay:10.37,2013-07-09 23:33:00,
2013-07-09 18:38:00,84.7,69.3,29.83,NW,311,3.0,3.0,60,0.00,CLR,,0.50,WeatherDisplay:10.37,2013-07-09 23:38:00,
2013-07-09 18:43:00,84.7,69.3,29.83,SE,129,6.9,6.9,60,0.00,CLR,,0.50,WeatherDisplay:10.37,2013-07-09 23:43:00,
2013-07-09 18:48:00,84.3,68.9,29.84,WNW,300,5.0,5.0,60,0.00,SCT,,0.50,WeatherDisplay:10.37,2013-07-09 23:48:00,
2013-07-09 18:53:00,84.0,68.6,29.84,SSW,205,4.6,4.6,60,0.00,SCT,,0.50,WeatherDisplay:10.37,2013-07-09 23:53:00,
2013-07-09 18:58:00,84.1,68.7,29.84,WSW,250,6.9,6.9,60,0.00,SCT,,0.50,WeatherDisplay:10.37,2013-07-09 23:58:00,
2013-07-09 19:03:00,84.3,68.9,29.85,South,186,1.1,0.0,60,0.00,CLR,,0.50,WeatherDisplay:10.37,2013-07-10 00:03:00,
2013-07-09 19:08:00,84.5,68.6,29.85,SSW,207,3.5,3.5,59,0.00,CLR,,0.50,WeatherDisplay:10.37,2013-07-10 00:08:00,
2013-07-09 19:13:00,84.3,68.9,29.85,SW,218,4.0,4.0,60,0.00,CLR,,0.50,WeatherDisplay:10.37,2013-07-10 00:13:00,
2013-07-09 19:18:00,84.1,68.7,29.85,NW,325,9.2,9.2,60,0.00,CLR,,0.50,WeatherDisplay:10.37,2013-07-10 00:18:00,
2013-07-09 19:23:00,83.8,68.9,29.85,WSW,248,5.0,5.0,61,0.00,CLR,,0.50,WeatherDisplay:10.37,2013-07-10 00:23:00,
2013-07-09 19:28:00,83.4,68.5,29.85,SW,234,9.2,9.2,61,0.00,CLR,,0.50,WeatherDisplay:10.37,2013-07-10 00:28:00,
2013-07-09 19:33:00,83.0,68.6,29.85,NNW,342,10.4,10.4,62,0.00,CLR,,0.50,WeatherDisplay:10.37,2013-07-10 00:33:00,
2013-07-09 19:38:00,82.6,68.7,29.84,WSW,238,3.5,3.5,63,0.00,CLR,,0.50,WeatherDisplay:10.37,2013-07-10 00:38:00,
2013-07-09 19:43:00,82.4,68.5,29.85,SSW,208,6.9,6.9,63,0.00,CLR,,0.50,WeatherDisplay:10.37,2013-07-10 00:43:00,
2013-07-09 19:48:00,82.2,68.8,29.85,WNW,288,5.8,5.8,64,0.00,CLR,,0.50,WeatherDisplay:10.37,2013-07-10 00:48:00,
2013-07-09 19:53:00,81.8,68.4,29.85,NNW,328,3.5,3.5,64,0.00,CLR,,0.50,WeatherDisplay:10.37,2013-07-10 00:53:00,
2013-07-09 19:58:00,81.4,68.5,29.85,NW,313,3.5,3.5,65,0.00,CLR,,0.50,WeatherDisplay:10.37,2013-07-10 00:58:00,
2013-07-09 20:03:00,81.1,68.7,29.85,NNW,344,6.9,6.9,66,0.00,CLR,,0.50,WeatherDisplay:10.37,2013-07-10 01:03:00,
2013-07-09 20:08:00,80.9,68.5,29.85,West,271,6.9,6.9,66,0.00,CLR,,0.50,WeatherDisplay:10.37,2013-07-10 01:08:00,
2013-07-09 20:13:00,80.7,68.7,29.85,WNW,297,4.6,4.6,67,0.00,CLR,,0.50,WeatherDisplay:10.37,2013-07-10 01:13:00,
2013-07-09 20:18:00,80.5,68.5,29.85,WSW,257,5.8,5.8,67,0.00,CLR,,0.50,WeatherDisplay:10.37,2013-07-10 01:18:00,
2013-07-09 20:23:00,80.3,68.3,29.85,WSW,248,4.6,4.6,67,0.00,CLR,,0.50,WeatherDisplay:10.37,2013-07-10 01:23:00,
2013-07-09 20:28:00,80.3,68.3,29.85,WNW,283,4.6,4.6,67,0.00,CLR,,0.50,WeatherDisplay:10.37,2013-07-10 01:28:00,
2013-07-09 20:33:00,79.9,68.0,29.85,SW,234,2.3,2.3,67,0.00,CLR,,0.50,WeatherDisplay:10.37,2013-07-10 01:33:00,
2013-07-09 20:38:00,79.8,67.9,29.85,NW,314,5.8,5.8,67,0.00,CLR,,0.50,WeatherDisplay:10.37,2013-07-10 01:38:00,
2013-07-09 20:43:00,79.6,67.7,29.85,WNW,286,4.6,4.6,67,0.00,CLR,,0.50,WeatherDisplay:10.37,2013-07-10 01:43:00,
2013-07-09 20:48:00,79.4,67.5,29.86,NNW,328,4.6,4.6,67,0.00,CLR,,0.50,WeatherDisplay:10.37,2013-07-10 01:48:00,
2013-07-09 20:53:00,79.4,67.5,29.86,NW,304,11.5,11.5,67,0.00,CLR,,0.50,WeatherDisplay:10.37,2013-07-10 01:53:00,
2013-07-09 20:58:00,79.2,67.3,29.86,NW,315,4.6,4.6,67,0.00,CLR,,0.50,WeatherDisplay:10.37,2013-07-10 01:58:00,
2013-07-09 21:03:00,79.0,67.5,29.86,WNW,295,5.8,5.8,68,0.00,CLR,,0.50,WeatherDisplay:10.37,2013-07-10 02:03:00,
2013-07-09 21:08:00,78.8,67.3,29.86,SSW,210,6.0,6.0,68,0.00,CLR,,0.50,WeatherDisplay:10.37,2013-07-10 02:08:00,
2013-07-09 21:13:00,78.5,67.1,29.86,NW,315,4.0,4.0,68,0.00,CLR,,0.50,WeatherDisplay:10.37,2013-07-10 02:13:00,
2013-07-09 21:18:00,78.3,66.9,29.86,NW,312,3.5,3.5,68,0.00,CLR,,0.50,WeatherDisplay:10.37,2013-07-10 02:18:00,
2013-07-09 21:23:00,78.1,67.1,29.86,NNE,30,4.6,4.6,69,0.00,CLR,,0.50,WeatherDisplay:10.37,2013-07-10 02:23:00,
2013-07-09 21:28:00,78.1,67.1,29.86,NW,313,3.5,3.5,69,0.00,CLR,,0.50,WeatherDisplay:10.37,2013-07-10 02:28:00,
2013-07-09 21:33:00,77.9,66.9,29.86,NNW,339,4.0,4.0,69,0.00,CLR,,0.50,WeatherDisplay:10.37,2013-07-10 02:33:00,
2013-07-09 21:38:00,77.7,66.7,29.86,WNW,298,3.0,3.0,69,0.00,CLR,,0.50,WeatherDisplay:10.37,2013-07-10 02:38:00,
2013-07-09 21:43:00,77.6,66.6,29.86,NW,309,3.5,3.5,69,0.00,CLR,,0.50,WeatherDisplay:10.37,2013-07-10 02:43:00,
2013-07-09 21:48:00,77.4,66.4,29.87,NW,314,3.5,3.5,69,0.00,CLR,,0.50,WeatherDisplay:10.37,2013-07-10 02:48:00,
2013-07-09 21:53:00,77.2,66.7,29.87,WNW,289,3.5,3.5,70,0.00,CLR,,0.50,WeatherDisplay:10.37,2013-07-10 02:53:00,
2013-07-09 21:58:00,77.0,66.5,29.87,NW,308,6.9,6.9,70,0.00,CLR,,0.50,WeatherDisplay:10.37,2013-07-10 02:58:00,
2013-07-09 22:03:00,76.8,66.3,29.87,NW,307,4.6,4.6,70,0.00,CLR,,0.50,WeatherDisplay:10.37,2013-07-10 03:03:00,
2013-07-09 22:08:00,76.7,66.2,29.87,WNW,296,5.0,5.0,70,0.00,CLR,,0.50,WeatherDisplay:10.37,2013-07-10 03:08:00,
2013-07-09 22:13:00,76.5,66.0,29.87,WNW,299,3.5,3.5,70,0.00,CLR,,0.50,WeatherDisplay:10.37,2013-07-10 03:13:00,
2013-07-09 22:18:00,76.5,66.0,29.88,North,9,8.1,8.1,70,0.00,CLR,,0.50,WeatherDisplay:10.37,2013-07-10 03:18:00,
2013-07-09 22:23:00,76.3,65.8,29.88,NW,315,6.9,6.9,70,0.00,CLR,,0.50,WeatherDisplay:10.37,2013-07-10 03:23:00,
2013-07-09 22:28:00,76.5,66.0,29.88,North,355,4.6,4.6,70,0.00,CLR,,0.50,WeatherDisplay:10.37,2013-07-10 03:28:00,
2013-07-09 22:33:00,76.3,65.8,29.88,NNW,344,5.0,5.0,70,0.00,CLR,,0.50,WeatherDisplay:10.37,2013-07-10 03:33:00,
2013-07-09 22:38:00,76.3,65.8,29.88,NNW,346,6.9,6.9,70,0.00,CLR,,0.50,WeatherDisplay:10.37,2013-07-10 03:38:00,
2013-07-09 22:43:00,76.3,65.8,29.88,NNW,341,5.8,5.8,70,0.00,CLR,,0.50,WeatherDisplay:10.37,2013-07-10 03:43:00,
2013-07-09 22:48:00,76.1,65.6,29.89,WNW,283,4.0,4.0,70,0.00,CLR,,0.50,WeatherDisplay:10.37,2013-07-10 03:48:00,
2013-07-09 22:53:00,76.0,65.5,29.89,NNE,25,11.5,11.5,70,0.00,CLR,,0.50,WeatherDisplay:10.37,2013-07-10 03:53:00,
2013-07-09 22:58:00,76.0,65.5,29.89,NW,312,5.8,5.8,70,0.00,CLR,,0.50,WeatherDisplay:10.37,2013-07-10 03:58:00,
2013-07-09 23:01:00,76.0,65.9,29.89,North,355,3.5,3.5,71,0.00,CLR,,0.50,WeatherDisplay:10.37,2013-07-10 04:01:00,
2013-07-09 23:06:00,75.8,65.7,29.89,WNW,300,8.0,8.0,71,0.00,CLR,,0.50,WeatherDisplay:10.37,2013-07-10 04:06:00,
2013-07-09 23:11:00,75.4,65.3,29.89,WNW,302,11.0,11.0,71,0.00,CLR,,0.50,WeatherDisplay:10.37,2013-07-10 04:11:00,
2013-07-09 23:16:00,75.4,64.9,29.89,NW,316,11.5,11.5,70,0.00,CLR,,0.50,WeatherDisplay:10.37,2013-07-10 04:16:00,
2013-07-09 23:21:00,75.4,64.5,29.89,North,349,4.0,4.0,69,0.00,CLR,,0.50,WeatherDisplay:10.37,2013-07-10 04:21:00,
2013-07-09 23:26:00,75.3,64.0,29.89,North,5,6.9,6.9,68,0.00,CLR,,0.50,WeatherDisplay:10.37,2013-07-10 04:26:00,
2013-07-09 23:31:00,75.1,63.4,29.90,NNE,14,11.5,11.5,67,0.00,CLR,,0.50,WeatherDisplay:10.37,2013-07-10 04:31:00,
2013-07-09 23:36:00,75.1,63.4,29.90,NNW,348,9.2,9.2,67,0.00,CLR,,0.50,WeatherDisplay:10.37,2013-07-10 04:36:00,
2013-07-09 23:41:00,74.9,62.8,29.90,NNE,31,9.2,9.2,66,0.00,CLR,,0.50,WeatherDisplay:10.37,2013-07-10 04:41:00,
2013-07-09 23:46:00,74.7,62.1,29.91,NW,321,11.5,11.5,65,0.00,CLR,,0.50,WeatherDisplay:10.37,2013-07-10 04:46:00,
2013-07-09 23:51:00,74.6,62.5,29.91,North,355,6.9,6.9,66,0.00,CLR,,0.50,WeatherDisplay:10.37,2013-07-10 04:51:00,
2013-07-09 23:56:00,74.4,62.7,29.91,North,5,5.8,5.8,67,0.00,CLR,,0.50,WeatherDisplay:10.37,2013-07-10 04:56:00,